Regional Weather Roundup
Issued by NWS Memphis, TN

Home | Current Version | Previous Version | Text Only | Print | Product List | Glossary On
Versions: 1 2 3 4 5 6 7 8 9 10 11 12 13 14 15 16 17 18 19 20 21 22 23 24 25 26 27 28 29 30 31 32 33 34 35 36 37 38 39 40 41 42 43 44 45 46 47 48 49 50
000
ASUS44 KMEG 231910
RWRMEG
MEMPHIS CWA HOURLY WEATHER ROUNDUP
NATIONAL WEATHER SERVICE MEMPHIS TN
200 PM CDT MON OCT 23 2017

...WEST TENNESSEE...

CITY           SKY/WX    TMP DP  RH WIND       PRES   REMARKS
MEMPHIS INTL   MOSUNNY   69  44  40 NW10G20   29.96F
NWS MEMPHIS      N/A     66 N/A N/A MISG        N/A
JACKSON        MOSUNNY   64  48  56 NW14G23   29.94F
COVINGTON      SUNNY     66  46  48 W7        29.94F
SOMERVILLE     SUNNY     66  43  42 W6G14     29.94F
BOLIVAR        SUNNY     64  46  52 VRB6G14   29.95F
LEXINGTON      PTSUNNY   59  48  67 NW10G21   29.93F
SELMER         MOSUNNY   61  48  63 VRB7G18   29.95F
SAVANNAH       CLOUDY    61  52  72 NW8G15    29.94F
DYERSBURG        N/A     65  47  52 W9        29.93F
UNION CITY     CLOUDY    66  43  42 N12       29.91F
PARIS          PTSUNNY   59  52  77 W9G18     29.90F
HUNTINGDON     PTSUNNY   61  50  67 W12       29.91F


...EASTERN ARKANSAS...

CITY           SKY/WX    TMP DP  RH WIND       PRES   REMARKS
JONESBORO      SUNNY     71  47  42 W12       29.92F
WEST MEMPHIS   SUNNY     68  43  40 VRB6G16   29.95F
BATESVILLE     SUNNY     72  43  35 SW12G20   29.93F
NEWPORT        SUNNY     74  41  30 W9G16     29.92F
WALNUT RIDGE   SUNNY     72  45  37 W9        29.90F
BLYTHEVILLE    SUNNY     69  47  45 W7        29.93F
NW BLYTHEVILLE SUNNY     68  43  40 W9        29.93F
SEARCY         MOSUNNY   72  43  35 MISG      29.96F
STUTTGART      SUNNY     73  41  31 W10       29.98F
PINE BLUFF     SUNNY     73  43  33 SW13      30.00F
MONTICELLO     SUNNY     73  40  30 W9        30.02F


...NORTH MISSISSIPPI...

CITY           SKY/WX    TMP DP  RH WIND       PRES   REMARKS
TUPELO         MOSUNNY   64  47  53 NW12      29.98F
BATESVILLE     SUNNY     70  40  34 NW5       29.99F
OLIVE BRANCH   MOSUNNY  N/A N/A N/A N9G17     29.94F
TUNICA           N/A    N/A N/A N/A W6        29.98F
CLARKSDALE       N/A     72  41  33 W12       30.00F
CORINTH        MOSUNNY   64  46  52 NW15      29.95F
GREENWOOD      SUNNY     69  45  41 W7G16     30.02F
COLUMBUS       PTSUNNY   66  54  63 NW14G21   29.98F
STARKVILLE     MOSUNNY   64  46  52 NW7G18    30.01F
GOLDEN TRIANGL PTSUNNY   66  50  56 NW14G20   29.99F


...SOUTHEAST MISSOURI...

CITY           SKY/WX    TMP DP  RH WIND       PRES   REMARKS
KENNETT        SUNNY     70  46  43 W12       29.90F
MALDEN         SUNNY     68  43  40 W10       29.91F
WEST PLAINS    SUNNY     70  42  36 W12       29.90F
POPLAR BLUFF   SUNNY     70  39  32 VRB5      29.87F
CAPE GIRARDEAU CLOUDY    64  42  44 SW8       29.87F


...NORTHWEST ALABAMA...

CITY           SKY/WX    TMP DP  RH WIND       PRES   REMARKS
MUSCLE SHOALS  CLOUDY    59  51  75 W13       29.95F


...MIDDLE TENNESSEE...

CITY           SKY/WX    TMP DP  RH WIND       PRES   REMARKS
NASHVILLE      LGT RAIN  58  53  84 W13G20    29.87S
CLARKSVILLE    LGT RAIN  56  52  86 W15G23    29.86F
COLUMBIA       CLOUDY    59  52  77 W10G22    29.89S


...WESTERN KENTUCKY...

CITY           SKY/WX    TMP DP  RH WIND       PRES   REMARKS
PADUCAH        CLOUDY    63  40  42 NW9       29.87F
FORT CAMPBELL  CLOUDY    55  50  82 W16G25    29.87R FOG


...CENTRAL ARKANSAS...

CITY           SKY/WX    TMP DP  RH WIND       PRES   REMARKS
LITTLE ROCK    MOSUNNY   74  44  34 SW10      29.98F


SKY/WX REPORTED AS FAIR MEANS FEW OR NO CLOUDS BELOW
12 THOUSAND FEET.




USA.gov is the U.S. government's official web portal to all federal, state and local government web resources and services.